Location: Fernhill
(41.0167°S, 175.6333°E)
Time: 23:12:20
(UTC+00:00)

Cosmos 1782 - Visible Passes

Search period start: 15 February 2026 00:00
Search period end: 25 February 2026 00:00
Orbit: 464 x 471 km, 82.5° (Epoch: 15 February)

Date Brightness Start Highest point End Pass type
(mag) Time Alt. Az. Time Alt. Az. Time Alt. Az.
15 Feb 2.9 07:59:04 10° NNE 08:02:28 41° E 08:05:54 10° SSE visible
15 Feb 5.9 09:36:14 10° W 09:37:25 11° WSW 09:38:36 10° SW visible
16 Feb 5.3 09:04:26 10° NW 09:07:10 20° WSW 09:09:56 10° SSW visible
17 Feb 4.1 08:33:38 10° NNW 08:37:00 37° WSW 08:40:24 10° S visible
18 Feb 2.7 08:03:18 10° N 08:06:54 78° W 08:10:31 10° S visible
20 Feb 5.7 08:39:07 10° WNW 08:41:34 17° WSW 08:44:02 10° SSW visible
21 Feb 4.6 08:08:04 10° NW 08:11:18 31° WSW 08:14:35 10° SSW visible
22 Feb 3.1 07:37:34 10° NNW 07:41:08 63° W 07:44:43 10° S visible
24 Feb 6.0 08:13:37 10° WNW 08:15:43 15° WSW 08:17:50 10° SW visible
